Friday Harbor, WA

3:59 PM PDT on June 25, 2017 (GMT -0700)
Friday Harbor

Weather History for KFHR - July, 2013

Change the Weather History Date:

Sunday, July 21, 2013

  Actual Average Record
Temperature  
Mean Temperature 58 °F -  
Max Temperature 68 °F 71 °F 91 °F (2006)
Min Temperature 51 °F 49 °F 45 °F (2005)
Degree Days  
Heating Degree Days 6    
Growing Degree Days 8 (Base 50)    
Moisture  
Dew Point 52 °F    
Average Humidity 86    
Maximum Humidity 97    
Minimum Humidity 70    
Precipitation  
Precipitation 0.00 in - - ()
Sea Level Pressure  
Sea Level Pressure 29.97 in    
Wind  
Wind Speed 2 mph (ESE)    
Max Wind Speed 9 mph    
Max Gust Speed -    
Visibility 8 miles    
Events      
Averages and records for this station are not official NWS values.
T = Trace of Precipitation, MM = Missing Value Source: NWS Daily Summary

Daily Weather History Graph

Daily Weather History Graph

Search for Another Location

Airport or City:

Trip Planner

Search our weather history database for the weather conditions in past years. The results will help you decide how hot, cold, wet, or windy it might be!

Date:

Astronomy

Jul. 21, 2013 Rise Set
Actual Time 5:33 AM PDT 9:03 PM PDT
Civil Twilight 4:54 AM PDT 9:41 PM PDT
Nautical Twilight 4:02 AM PDT 10:33 PM PDT
Astronomical Twilight 2:51 AM PDT 11:42 PM PDT
Moon 8:01 PM PDT (7/21) 4:27 AM PDT (7/21)
Length of Visible Light 16h 47m
Length of Day
15h 29m
Waxing Gibbous, 99% of the Moon is Illuminated
Jul 21
Waxing Gibbous
Jul 22
Full
Jul 29
Last Quarter
Aug 6
New
Aug 14
First Quarter

Hourly Weather History & Observations

Time (PDT) Temp. Dew Point Humidity Pressure Visibility Wind Dir Wind Speed Gust Speed Precip Events Conditions
12:37 AM 51.8 °F 50.0 °F 94% 29.97 in 6.0 mi Calm Calm - N/A   Partly Cloudy
12:53 AM 51.1 °F 50.0 °F 96% 29.97 in 6.0 mi Calm Calm - N/A   Mostly Cloudy
1:01 AM 51.8 °F 50.0 °F 94% 29.97 in 6.0 mi Calm Calm - N/A   Scattered Clouds
1:37 AM 51.8 °F 50.0 °F 94% 29.97 in 7.0 mi Calm Calm - N/A   Mostly Cloudy
1:53 AM 52.0 °F 50.0 °F 93% 29.97 in 7.0 mi Calm Calm - N/A   Overcast
2:53 AM 52.0 °F 51.1 °F 97% 29.96 in 7.0 mi Calm Calm - N/A   Overcast
3:53 AM 52.0 °F 51.1 °F 97% 29.96 in 5.0 mi NE 3.5 mph - N/A   Overcast
4:53 AM 52.0 °F 51.1 °F 97% 29.97 in 6.0 mi Calm Calm - N/A   Overcast
5:53 AM 52.0 °F 51.1 °F 97% 29.97 in 4.0 mi Calm Calm - N/A   Overcast
6:53 AM 53.1 °F 51.1 °F 93% 29.98 in 5.0 mi Calm Calm - N/A   Overcast
7:53 AM 55.0 °F 52.0 °F 89% 29.99 in 8.0 mi ESE 3.5 mph - N/A   Overcast
8:24 AM 57.2 °F 53.6 °F 88% 29.99 in 9.0 mi ESE 3.5 mph - N/A   Mostly Cloudy
8:40 AM 55.4 °F 51.8 °F 88% 29.99 in 9.0 mi East 3.5 mph - N/A   Overcast
8:49 AM 55.4 °F 51.8 °F 88% 29.99 in 9.0 mi ESE 4.6 mph - N/A   Overcast
8:53 AM 55.9 °F 52.0 °F 87% 29.99 in 9.0 mi East 3.5 mph - N/A   Overcast
9:53 AM 57.9 °F 53.1 °F 84% 29.99 in 10.0 mi ESE 6.9 mph - N/A   Overcast
10:15 AM 59.0 °F 53.6 °F 82% 29.99 in 10.0 mi ESE 6.9 mph - N/A   Overcast
10:53 AM 57.9 °F 53.1 °F 84% 30.00 in 10.0 mi Variable 5.8 mph - N/A   Overcast
11:53 AM 59.0 °F 53.1 °F 81% 29.99 in 9.0 mi ESE 9.2 mph - N/A   Overcast
12:53 PM 61.0 °F 54.0 °F 78% 29.99 in 9.0 mi ESE 6.9 mph - N/A   Overcast
1:33 PM 62.6 °F 55.4 °F 77% 29.98 in 10.0 mi ESE 8.1 mph - N/A   Scattered Clouds
1:53 PM 62.1 °F 54.0 °F 75% 29.99 in 10.0 mi ESE 9.2 mph - N/A   Clear
2:53 PM 63.0 °F 54.0 °F 72% 29.98 in 10.0 mi SE 6.9 mph - N/A   Clear
3:53 PM 64.9 °F 55.0 °F 70% 29.96 in 10.0 mi SE 6.9 mph - N/A   Clear
4:53 PM 64.9 °F 55.0 °F 70% 29.96 in 10.0 mi SW 9.2 mph - N/A   Clear
5:53 PM 66.0 °F 55.9 °F 70% 29.94 in 10.0 mi SW 4.6 mph - N/A   Clear
6:53 PM 64.0 °F 55.0 °F 73% 29.94 in 10.0 mi SSW 5.8 mph - N/A   Clear
7:53 PM 60.1 °F 53.1 °F 78% 29.93 in 10.0 mi ESE 3.5 mph - N/A   Clear
8:53 PM 55.0 °F 52.0 °F 89% 29.93 in 8.0 mi South 4.6 mph - N/A   Clear
9:53 PM 53.1 °F 51.1 °F 93% 29.94 in 8.0 mi Calm Calm - N/A   Clear
10:53 PM 53.1 °F 51.1 °F 93% 29.94 in 9.0 mi Calm Calm - N/A   Clear
11:53 PM 51.1 °F 48.9 °F 92% 29.95 in 9.0 mi Calm Calm - N/A   Clear